Theta_e
317 310 313 318 322 320 323 326 327 329 329 331 333 332 348 347 351 361 343 346 353 349 346 345 346 347 349 351 346 342 338 335 331 331 332 331 331 332 334 334 335 338 340 340 340 338 335 333 327
311 317 319 318 323 325 326 326 328 329 330 330 332 333 357 358 350 344 344 353 350 349 347 345 345 346 347 350 346 342 339 335 332 331 332 331 330 336 337 338 339 344 343 341 339 337 335 330 325
310 316 318 319 320 327 328 327 328 329 330 333 333 332 354 356 347 344 349 356 353 350 349 346 344 344 345 347 348 343 342 336 332 332 332 331 329 338 343 341 341 341 347 341 337 338 336 327 324
318 315 320 317 322 324 326 327 328 329 330 331 332 336 343 351 347 353 355 354 351 351 349 346 344 342 343 346 348 345 342 336 333 333 334 333 329 338 346 344 344 341 337 335 337 336 332 326 325
317 312 317 317 318 320 324 327 328 328 328 329 333 333 349 358 356 355 355 356 351 355 352 346 343 341 341 345 348 346 343 336 334 335 334 334 329 336 342 341 342 343 340 335 330 329 327 325 326
314 311 312 319 316 318 319 321 323 325 327 329 331 335 347 358 355 357 357 356 353 354 355 346 343 340 341 344 347 346 343 336 336 337 336 335 328 330 336 339 341 340 339 333 331 329 327 326 329
316 313 311 311 312 315 317 319 321 322 323 324 330 332 346 357 356 358 358 357 355 356 355 345 343 341 342 345 347 346 342 338 338 339 338 336 328 329 336 339 336 336 338 334 334 332 331 329 329
318 318 316 312 313 313 314 317 320 322 322 324 327 332 345 355 354 356 357 356 357 356 354 344 343 344 347 348 348 345 343 341 341 342 340 336 328 333 338 335 332 333 333 334 335 333 331 330 334
321 321 321 318 313 312 314 314 317 321 322 323 324 335 349 355 353 354 354 357 357 356 353 344 343 344 347 348 347 345 345 343 343 343 341 336 329 335 336 333 331 329 330 333 335 333 333 334 336
322 322 322 319 317 316 315 315 316 318 318 322 326 345 348 354 353 353 354 355 356 353 352 345 344 345 348 349 346 345 345 344 343 342 340 334 330 333 335 334 338 338 328 329 331 333 333 332 332
321 325 322 322 321 320 319 320 321 321 317 319 321 324 345 343 349 352 354 354 356 352 349 347 345 347 348 348 344 344 342 341 341 340 336 332 337 341 338 343 340 338 337 332 328 327 326 326 326
316 321 324 323 323 322 321 321 321 321 319 318 319 321 333 342 341 345 352 353 355 351 349 347 345 344 346 343 342 341 339 338 337 337 336 331 340 343 341 342 341 340 340 337 333 335 339 339 333
315 316 321 323 323 322 321 321 320 320 321 318 319 319 319 331 337 340 346 353 354 352 349 347 345 340 343 343 339 338 338 338 336 341 341 332 339 342 342 338 342 342 344 341 341 341 341 342 341
317 317 317 317 319 321 322 321 319 320 320 321 319 319 319 317 326 333 338 340 355 353 349 346 345 344 348 343 341 341 343 341 342 342 342 341 338 340 344 343 345 348 345 343 343 343 344 345 344
315 316 319 318 317 318 320 321 320 319 319 321 320 317 320 319 324 329 334 337 355 352 350 349 345 344 351 348 343 345 346 345 345 345 346 345 342 345 350 346 346 343 345 345 345 344 342 341 340
317 317 318 319 319 319 319 322 321 319 319 319 320 320 319 318 320 325 328 329 353 349 351 347 341 336 343 351 347 345 348 347 347 348 347 347 345 347 353 349 350 348 348 346 344 344 343 343 342
318 319 319 319 320 320 320 321 321 320 318 318 318 319 319 317 319 320 322 322 349 345 342 338 337 338 343 349 351 345 353 349 348 351 351 349 349 348 351 348 348 348 350 346 345 345 345 345 345
321 318 319 320 320 321 321 321 320 320 320 318 317 318 318 318 317 319 321 321 346 344 340 337 338 340 342 353 355 349 352 350 352 350 351 351 351 349 348 348 348 349 348 348 348 347 345 344 342
320 319 318 319 320 321 321 320 318 320 320 318 318 317 318 318 318 320 321 321 348 340 337 337 339 338 338 348 352 353 353 355 353 351 351 354 353 351 349 348 347 348 347 348 347 345 344 341 340
321 322 320 318 318 320 320 320 319 318 319 319 317 318 318 317 318 320 321 321 361 357 349 340 341 344 349 354 352 353 355 355 353 354 353 352 351 351 351 349 348 348 350 349 348 345 342 339 337
321 322 321 321 320 318 319 320 320 320 319 318 318 318 319 319 319 319 319 321 362 361 359 357 358 355 356 354 354 357 354 354 353 352 351 352 352 350 349 350 348 347 347 347 345 342 340 334 336
314 316 320 321 321 322 320 322 321 321 320 320 319 317 318 318 319 318 320 326 357 355 356 356 357 357 357 356 355 355 353 352 352 350 350 351 350 350 349 347 348 345 344 343 342 339 338 338 331
312 313 315 319 320 320 321 323 321 322 320 320 319 318 317 319 319 319 320 343 350 353 352 350 351 351 354 355 354 353 354 353 351 352 350 351 350 349 347 345 343 343 341 343 342 335 333 336 337
314 313 313 316 318 321 321 322 323 323 322 321 321 320 319 318 319 319 321 349 351 349 340 331 343 354 353 353 354 352 353 351 351 351 350 347 347 345 344 344 342 341 340 340 340 341 340 338 338
317 314 314 319 320 321 320 323 322 321 322 322 322 321 319 319 317 318 334 339 352 348 345 346 350 353 353 352 352 353 350 348 351 350 348 347 344 344 344 342 341 341 340 339 339 337 336 336 335
318 317 314 328 329 321 320 324 322 321 321 321 322 321 319 319 317 321 329 333 349 353 354 354 353 352 352 350 351 349 347 348 349 347 346 344 343 342 340 338 336 334 332 332 332 333 331 329 330
321 321 316 321 324 323 320 320 322 321 325 332 326 322 320 318 318 318 325 328 350 351 350 350 351 350 349 349 348 347 345 344 342 342 340 338 338 335 333 333 332 330 329 328 327 327 326 324 322
320 317 316 316 326 327 320 320 320 321 335 342 338 322 320 319 318 331 334 348 348 348 347 347 346 344 344 342 338 337 336 335 334 333 331 330 330 329 327 326 324 323 322 321 320 319 319 318 317
320 320 316 315 324 324 321 319 319 321 340 344 343 335 328 341 346 346 345 345 344 344 342 341 339 337 334 333 331 331 329 329 329 327 325 323 322 320 319 318 318 316 315 315 315 315 315 315 315
319 323 317 321 325 325 328 328 333 337 339 342 343 343 343 343 342 341 340 340 340 339 336 333 330 327 325 324 325 323 325 324 322 320 319 317 316 314 313 313 313 314 315 314 313 312 311 311 310
Wind_Speed
15 13 8 4 2 2 7 10 13 20 16 5 5 8 10 24 15 7 25 12 25 37 31 27 25 25 24 23 22 20 19 18 17 17 16 17 18 18 18 18 17 15 14 13 11 9 8 7 7
12 8 7 3 4 4 8 15 18 22 16 7 6 6 18 5 8 6 13 26 37 41 33 28 25 25 24 23 22 21 19 18 18 17 16 17 17 17 17 16 14 13 12 12 10 8 7 6 7
10 6 1 5 4 12 10 9 19 22 7 2 2 4 9 11 13 12 8 37 39 42 36 29 26 25 24 23 23 22 21 19 19 17 16 18 18 19 16 15 13 12 12 10 9 8 6 6 8
6 1 4 4 9 17 21 14 24 21 19 9 3 8 7 29 33 22 33 36 35 38 34 30 27 25 25 24 24 22 21 20 19 17 16 16 18 19 17 14 12 11 11 10 9 8 7 8 9
8 3 4 6 12 16 15 21 27 21 21 15 3 2 6 10 39 46 41 35 36 31 29 30 27 26 25 25 24 23 22 21 20 17 16 16 17 18 16 13 11 10 10 9 9 8 9 9 10
2 3 3 14 11 18 19 22 20 17 18 21 4 11 6 27 31 36 40 33 33 33 27 30 27 26 25 25 25 24 22 21 20 18 16 16 17 18 15 12 10 9 9 8 8 9 9 9 10
6 3 6 8 9 20 18 17 23 21 20 21 8 8 11 15 30 38 37 36 33 32 29 32 28 25 24 25 25 24 23 21 19 17 16 17 18 18 15 12 10 10 9 8 8 8 8 9 9
4 4 10 12 15 21 14 9 19 21 24 20 13 5 9 17 34 35 37 36 38 34 30 33 29 26 26 26 25 24 22 20 19 17 16 16 17 17 15 13 11 10 10 9 8 8 8 9 10
4 6 16 24 18 13 17 11 14 13 17 18 9 2 19 34 37 31 33 32 32 31 31 35 33 29 28 28 25 23 21 19 18 17 17 17 18 17 15 12 11 10 10 10 9 9 9 9 11
10 12 25 11 13 15 15 12 14 7 9 20 1 16 25 31 31 24 25 28 31 30 33 38 34 32 29 25 26 23 21 20 20 19 18 17 16 15 13 11 10 8 8 9 9 9 10 11 13
6 23 15 17 16 19 22 22 13 15 10 8 8 6 13 11 13 16 23 32 36 38 34 38 35 32 28 27 28 26 24 23 21 19 17 17 15 11 12 11 11 10 10 10 10 11 12 14 15
15 21 19 18 14 15 22 17 14 11 8 9 8 6 9 11 9 10 15 23 32 37 37 40 36 34 28 26 28 25 23 21 20 19 17 19 17 15 13 15 16 13 11 12 11 12 13 13 14
26 21 17 22 20 22 18 22 16 18 13 9 5 9 7 8 10 16 21 26 35 35 38 43 40 35 28 29 29 27 25 23 21 18 17 18 18 14 17 14 16 16 13 11 13 13 16 17 19
5 22 23 20 18 23 21 19 9 22 11 5 7 5 2 8 10 11 16 13 19 30 30 35 31 24 15 27 27 28 25 22 21 22 20 18 19 16 19 12 12 9 13 15 18 14 10 6 15
23 23 16 24 25 22 16 19 27 15 8 5 6 6 4 5 10 10 15 9 36 39 40 30 40 33 12 20 24 28 26 25 27 25 23 20 20 17 16 12 8 11 10 8 10 7 10 14 16
15 16 21 27 23 24 14 30 20 10 6 7 7 7 7 5 5 12 13 8 34 45 49 50 39 39 22 22 30 32 30 27 28 30 27 25 22 19 11 13 9 11 14 13 11 13 14 14 15
12 19 24 19 19 16 25 28 12 8 8 8 8 7 6 6 6 10 11 11 38 48 55 54 45 38 50 39 31 33 21 28 28 24 27 29 22 21 16 13 14 8 4 8 11 9 9 12 8
19 23 16 19 20 19 24 21 11 11 16 12 9 8 9 8 9 11 13 17 36 42 46 49 53 48 39 28 30 30 17 22 17 18 16 25 24 21 16 16 13 13 9 8 5 8 5 6 11
20 20 17 16 16 23 21 18 11 16 15 11 14 10 10 10 7 13 20 20 27 44 46 47 39 26 25 35 31 24 20 16 15 11 16 20 23 19 14 12 15 14 10 12 14 14 10 10 8
21 22 20 13 24 19 21 19 15 10 17 18 10 17 14 9 10 8 20 20 29 38 39 39 42 41 44 36 29 28 21 14 16 13 10 12 12 10 9 8 9 9 9 11 11 9 5 6 6
21 20 19 15 14 21 9 20 11 19 14 12 10 10 16 16 16 13 10 16 29 32 38 37 38 33 38 31 30 24 17 13 12 15 13 12 10 10 8 7 8 11 11 10 9 9 9 6 5
17 17 20 20 16 12 16 11 12 19 20 11 14 10 10 12 16 12 8 8 26 30 31 28 26 26 28 29 26 24 21 14 13 17 16 13 11 10 8 8 7 6 6 6 6 7 7 8 11
17 17 17 21 17 11 19 11 16 16 15 20 11 9 10 10 13 14 9 16 28 37 31 23 18 13 23 28 28 24 19 23 21 20 19 19 15 10 6 4 3 4 5 5 5 6 7 10 13
15 19 18 16 16 13 18 10 17 15 26 11 8 13 13 11 10 10 11 25 30 32 31 28 18 24 23 31 27 25 25 21 21 23 21 15 11 9 6 4 2 1 2 2 4 5 7 9 10
9 8 9 7 13 9 15 10 10 10 14 19 18 16 15 13 10 9 14 14 26 29 30 29 28 25 24 25 20 19 15 14 20 23 19 16 13 10 7 5 4 4 4 2 1 1 3 7 9
9 8 3 7 6 14 12 7 10 9 12 14 14 15 15 12 10 10 12 12 26 33 32 30 27 23 22 19 15 12 10 19 17 18 20 19 16 11 6 8 9 9 8 6 6 4 7 9 11
6 9 10 5 6 7 6 9 5 12 7 3 16 19 20 12 10 12 13 12 27 31 31 34 31 27 22 16 18 19 20 25 27 25 23 18 13 11 11 9 8 8 8 8 9 10 13 15 16
9 5 5 4 9 5 7 19 7 7 7 11 7 21 20 13 10 12 13 19 27 31 32 31 28 29 28 28 31 31 27 27 29 26 24 22 18 13 12 11 10 10 9 8 10 11 13 15 16
7 13 11 3 4 6 7 9 14 3 12 14 12 15 15 17 20 21 20 25 31 32 33 34 32 32 34 35 32 31 28 26 24 22 19 17 14 11 11 10 9 12 11 13 14 14 14 14 16
1 6 10 4 10 1 1 2 13 4 16 21 16 22 23 23 22 19 20 25 30 32 29 32 33 33 30 31 34 30 25 21 21 18 15 12 12 11 11 12 13 14 12 13 15 16 18 20 22
Wind_Direction
274 274 284 273 42 173 247 247 253 281 280 262 112 89 133 156 157 173 228 203 164 161 158 158 152 150 150 150 150 150 148 144 141 136 133 134 132 129 130 129 129 131 133 134 130 119 112 116 111
278 275 233 263 166 232 254 245 255 259 273 207 93 67 99 124 152 148 203 159 162 161 159 159 157 154 153 154 155 155 152 151 147 144 142 141 139 134 132 130 129 132 137 141 142 135 129 128 125
279 251 165 173 218 221 249 224 255 260 272 228 121 112 110 110 60 153 170 149 155 157 159 160 160 158 157 158 159 161 158 158 156 154 153 149 147 142 138 140 138 139 139 142 150 149 146 145 143
251 257 286 207 229 227 242 254 266 289 302 303 351 86 66 140 145 169 146 151 153 154 161 161 164 161 161 162 162 164 162 160 161 157 154 153 153 151 148 149 147 148 151 154 160 165 166 164 160
254 271 225 228 248 258 250 241 258 274 274 279 145 338 85 98 134 136 141 146 146 153 162 164 167 164 164 165 165 167 166 165 166 163 159 160 160 161 158 159 162 160 160 166 169 173 176 174 171
268 172 230 227 239 243 251 261 271 271 268 266 245 127 134 133 135 139 141 142 147 160 166 168 171 167 168 166 167 169 169 169 169 167 163 164 166 167 168 170 171 168 170 171 174 178 183 184 186
221 267 231 244 237 242 244 238 250 258 270 276 259 157 151 141 143 144 142 141 154 161 167 171 171 170 169 168 169 170 171 172 171 169 170 169 169 170 171 175 178 174 177 179 182 186 192 195 202
188 243 255 234 245 259 258 251 233 243 257 261 264 157 176 154 153 142 142 142 157 165 171 172 170 171 169 169 172 172 173 173 175 174 175 175 173 174 176 177 179 182 183 185 191 198 202 206 214
225 232 239 235 226 238 263 263 268 248 248 250 252 138 130 148 150 139 141 139 146 161 170 175 173 172 171 170 173 174 175 177 177 178 180 178 178 180 184 184 183 186 191 195 201 208 216 222 230
205 221 234 237 244 256 272 275 272 282 280 247 229 125 133 144 150 155 158 153 153 157 167 176 176 172 171 168 174 177 177 179 182 183 183 182 182 188 190 192 194 193 205 213 218 225 234 239 246
231 232 230 234 249 269 273 279 288 290 276 238 158 107 136 138 148 160 170 165 162 166 164 174 176 170 171 176 176 179 182 182 183 186 186 181 180 186 196 195 203 213 219 225 227 236 243 251 254
242 246 239 249 248 242 253 272 290 303 279 190 145 153 142 155 166 164 176 173 160 164 166 170 175 171 169 182 179 181 182 183 183 185 181 179 182 206 209 209 222 226 232 234 234 242 249 256 258
226 242 241 245 254 259 273 274 277 291 289 287 213 168 189 174 173 186 187 194 165 170 166 165 168 173 178 182 183 182 182 185 184 188 191 186 184 200 208 217 228 233 231 232 230 246 252 264 261
247 228 241 252 244 250 254 270 276 265 270 289 304 160 208 170 189 186 206 213 144 143 141 145 149 153 182 189 181 186 183 188 188 188 198 190 188 195 203 219 227 234 234 245 250 241 252 282 268
248 262 248 228 237 245 246 255 245 255 272 233 291 249 194 265 177 172 189 220 131 130 131 122 140 155 172 202 190 190 193 187 191 194 197 188 183 191 208 212 235 239 243 239 157 210 280 291 279
243 240 241 239 218 234 221 243 242 262 245 233 252 267 193 201 196 188 202 178 140 131 134 136 141 138 205 224 204 194 198 196 200 201 201 198 189 190 192 200 219 236 256 243 243 258 278 285 287
251 234 234 236 225 212 218 241 231 225 240 240 232 228 224 221 214 224 217 227 147 149 146 151 170 184 189 207 201 196 193 195 197 200 203 201 194 197 199 209 227 258 298 232 246 245 255 267 269
222 228 229 237 221 239 224 236 224 208 237 226 223 223 209 231 225 230 241 242 154 162 161 166 170 186 200 198 189 188 194 188 192 193 189 197 191 198 209 222 229 246 277 287 290 264 256 299 305
241 249 236 240 212 224 241 224 205 205 233 238 211 204 199 211 246 228 235 246 153 165 170 174 176 174 183 209 194 181 190 144 134 158 168 179 187 194 210 226 242 248 276 290 277 280 304 304 314
248 245 253 238 242 214 231 234 215 190 216 228 212 200 195 204 219 243 234 233 154 164 172 171 178 193 201 195 186 194 182 167 159 162 165 172 185 194 220 244 250 249 265 275 298 304 294 288 290
242 236 246 248 253 237 217 227 229 213 208 201 211 183 197 191 206 222 218 192 148 157 164 172 175 178 175 178 186 185 171 183 158 164 167 186 185 200 216 219 232 253 269 284 286 277 262 259 254
237 251 246 255 249 249 218 228 223 219 205 207 210 195 188 187 200 212 196 159 138 140 163 162 165 168 173 179 179 181 179 171 192 202 196 182 166 174 193 228 243 276 285 284 278 269 246 245 273
242 240 247 244 251 252 262 235 222 203 196 207 200 192 196 188 190 209 195 146 143 149 151 155 166 190 186 177 181 177 181 192 186 185 174 176 179 175 171 193 231 272 298 285 285 269 270 277 280
241 229 245 249 239 246 247 243 223 187 195 182 204 205 195 189 192 189 183 141 150 158 163 178 184 183 191 178 179 184 189 190 179 165 167 162 152 169 185 205 200 304 353 338 288 289 287 288 285
249 255 216 215 230 222 234 243 249 207 184 187 205 198 186 183 182 169 155 139 138 150 145 155 167 165 167 172 176 180 188 199 185 171 154 147 137 140 149 145 132 100 71 95 171 39 1 334 319
257 229 185 173 186 219 215 206 227 202 195 198 197 188 170 168 166 142 147 139 129 137 138 138 139 143 151 161 181 170 152 121 138 152 142 132 126 120 112 100 92 86 57 28 0 352 347 353 342
266 246 241 164 187 217 172 244 219 263 165 337 220 177 173 159 157 140 147 150 126 125 128 130 136 141 141 130 116 119 122 110 106 112 113 106 105 105 92 86 74 59 42 17 2 2 353 344 343
199 273 239 234 184 184 195 215 224 210 87 34 13 168 161 149 127 102 125 108 113 112 111 113 121 114 117 109 98 98 104 104 103 103 95 94 92 86 77 69 61 57 47 30 22 11 357 348 344
164 233 240 184 152 205 183 213 208 250 119 85 47 76 106 94 94 102 102 103 105 105 107 103 102 102 100 106 106 105 99 96 97 93 92 93 95 88 78 63 59 46 31 15 8 6 360 357 349
128 275 196 217 218 233 80 252 337 240 120 103 81 90 94 99 100 102 105 105 103 101 101 102 100 97 97 100 101 99 98 98 96 95 89 85 77 64 57 47 47 43 35 30 27 14 359 350 342